| time (UTC) | temp C | wind direction | speed KPH | gust KPH | rain 1hr cm | rain 24hr cm | rain mn cm | humidity % | barometer mb |
| 20260507074007 | 4 | 241 | 0.0 | 3.2 | 0.00 | 0.64 | 0.00 | 87 | 1012.9 |
| 20260507073502 | 4 | 239 | 0.0 | 1.6 | 0.00 | 0.66 | 0.00 | 87 | 1012.9 |
| 20260507073018 | 4 | 239 | 0.0 | 1.6 | 0.00 | 0.71 | 0.00 | 86 | 1013.0 |
| 20260507072507 | 5 | 239 | 0.0 | 3.2 | 0.00 | 0.74 | 0.00 | 86 | 1012.9 |
| 20260507072008 | 5 | 239 | 0.0 | 3.2 | 0.00 | 0.76 | 0.00 | 85 | 1012.9 |
| 20260507071534 | 5 | 238 | 0.0 | 3.2 | 0.00 | 0.79 | 0.00 | 85 | 1012.9 |
| 20260507071006 | 5 | 238 | 0.0 | 3.2 | 0.00 | 0.81 | 0.00 | 85 | 1012.9 |
| 20260507070509 | 5 | 235 | 0.0 | 1.6 | 0.00 | 0.84 | 0.00 | 85 | 1012.9 |
| 20260507070027 | 5 | 234 | 0.0 | 1.6 | 0.00 | 0.86 | 0.00 | 85 | 1012.9 |
| 20260507065505 | 5 | 234 | 0.0 | 3.2 | 0.00 | 0.89 | 0.00 | 85 | 1013.0 |
| 20260507065009 | 5 | 234 | 0.0 | 3.2 | 0.00 | 0.91 | 0.00 | 85 | 1013.0 |
| 20260507064527 | 5 | 234 | 0.0 | 3.2 | 0.00 | 0.94 | 0.00 | 85 | 1013.0 |
| 20260507064005 | 5 | 228 | 0.0 | 3.2 | 0.00 | 0.97 | 0.00 | 85 | 1013.1 |
| 20260507063504 | 5 | 179 | 0.0 | 3.2 | 0.00 | 0.99 | 0.00 | 85 | 1013.1 |
| 20260507063009 | 5 | 171 | 0.0 | 3.2 | 0.00 | 1.02 | 0.00 | 85 | 1013.1 |
| 20260507062511 | 5 | 171 | 0.0 | 0.0 | 0.00 | 1.04 | 0.00 | 84 | 1013.2 |
| 20260507062007 | 5 | 171 | 0.0 | 0.0 | 0.00 | 1.07 | 0.00 | 84 | 1013.3 |
| 20260507061518 | 5 | 171 | 0.0 | 3.2 | 0.00 | 1.07 | 0.00 | 84 | 1013.4 |
| 20260507061006 | 5 | 171 | 0.0 | 3.2 | 0.00 | 1.12 | 0.00 | 84 | 1013.3 |
| 20260507060508 | 5 | 171 | 0.0 | 3.2 | 0.00 | 1.17 | 0.00 | 84 | 1013.4 |
| 20260507060015 | 5 | 171 | 0.0 | 1.6 | 0.00 | 1.19 | 0.00 | 84 | 1013.5 |
| 20260507055509 | 5 | 171 | 0.0 | 0.0 | 0.00 | 1.22 | 0.00 | 84 | 1013.6 |
| 20260507055014 | 5 | 171 | 0.0 | 0.0 | 0.00 | 1.24 | 0.00 | 84 | 1013.6 |
| 20260507054513 | 5 | 171 | 0.0 | 0.0 | 0.00 | 1.27 | 0.00 | 83 | 1013.7 |
| 20260507054009 | 5 | 171 | 0.0 | 0.0 | 0.00 | 1.30 | 0.00 | 83 | 1013.6 |
| 20260507053508 | 6 | 171 | 0.0 | 1.6 | 0.00 | 1.32 | 0.00 | 83 | 1013.6 |
| 20260507053042 | 6 | 171 | 0.0 | 1.6 | 0.00 | 1.32 | 0.00 | 83 | 1013.6 |
| 20260507052509 | 6 | 171 | 0.0 | 1.6 | 0.00 | 1.32 | 0.00 | 82 | 1013.7 |
| 20260507052008 | 6 | 171 | 0.0 | 1.6 | 0.00 | 1.37 | 0.00 | 82 | 1013.7 |
| 20260507051538 | 6 | 171 | 0.0 | 3.2 | 0.00 | 1.40 | 0.00 | 81 | 1013.8 |
| 20260507051007 | 6 | 171 | 0.0 | 3.2 | 0.00 | 1.42 | 0.00 | 80 | 1013.7 |
| 20260507050507 | 6 | 171 | 0.0 | 1.6 | 0.00 | 1.45 | 0.00 | 80 | 1013.8 |
| 20260507050021 | 6 | 171 | 0.0 | 1.6 | 0.00 | 1.45 | 0.00 | 80 | 1013.7 |
| 20260507045509 | 6 | 171 | 0.0 | 0.0 | 0.00 | 1.47 | 0.00 | 80 | 1013.8 |
| 20260507045007 | 6 | 171 | 0.0 | 0.0 | 0.00 | 1.47 | 0.00 | 79 | 1013.8 |
| 20260507044527 | 6 | 171 | 0.0 | 0.0 | 0.00 | 1.47 | 0.00 | 79 | 1013.7 |
| 20260507044008 | 6 | 171 | 0.0 | 0.0 | 0.00 | 1.47 | 0.00 | 79 | 1013.7 |
| 20260507043512 | 6 | 171 | 0.0 | 0.0 | 0.00 | 1.52 | 0.00 | 78 | 1013.7 |
| 20260507043018 | 6 | 171 | 0.0 | 1.6 | 0.00 | 1.55 | 0.00 | 78 | 1013.8 |
| 20260507042509 | 6 | 171 | 0.0 | 1.6 | 0.00 | 1.57 | 0.00 | 78 | 1013.8 |
| 20260507042012 | 6 | 171 | 0.0 | 1.6 | 0.00 | 1.60 | 0.00 | 78 | 1013.9 |
| 20260507041530 | 6 | 171 | 0.0 | 1.6 | 0.00 | 1.60 | 0.00 | 79 | 1014.0 |
| 20260507041007 | 6 | 171 | 0.0 | 1.6 | 0.00 | 1.63 | 0.00 | 78 | 1014.0 |
| 20260507040512 | 6 | 171 | 0.0 | 0.0 | 0.00 | 1.65 | 0.00 | 77 | 1014.1 |
| 20260507040030 | 6 | 171 | 0.0 | 0.0 | 0.00 | 1.70 | 0.00 | 76 | 1014.1 |
| 20260507035510 | 6 | 171 | 0.0 | 0.0 | 0.00 | 1.73 | 1.70 | 76 | 1014.1 |
| 20260507035005 | 7 | 171 | 0.0 | 0.0 | 0.00 | 1.73 | 1.70 | 75 | 1014.2 |
| 20260507034532 | 7 | 171 | 0.0 | 0.0 | 0.00 | 1.75 | 1.70 | 75 | 1014.2 |
| 20260507034001 | 7 | 171 | 0.0 | 0.0 | 0.00 | 1.78 | 1.70 | 74 | 1014.3 |
| 20260507033501 | 7 | 171 | 0.0 | 0.0 | 0.00 | 1.78 | 1.70 | 73 | 1014.3 |
| 20260507033010 | 7 | 171 | 0.0 | 1.6 | 0.00 | 1.80 | 1.70 | 73 | 1014.3 |
| 20260507032503 | 7 | 171 | 0.0 | 1.6 | 0.00 | 1.83 | 1.70 | 72 | 1014.3 |
| 20260507032002 | 7 | 171 | 0.0 | 0.0 | 0.00 | 1.83 | 1.70 | 72 | 1014.3 |
| 20260507031503 | 7 | 171 | 0.0 | 0.0 | 0.00 | 1.85 | 1.70 | 72 | 1014.2 |
| 20260507031003 | 7 | 171 | 0.0 | 0.0 | 0.00 | 1.85 | 1.70 | 73 | 1014.1 |
| 20260507030503 | 7 | 171 | 0.0 | 0.0 | 0.00 | 1.85 | 1.70 | 73 | 1014.1 |
| 20260507030003 | 7 | 171 | 0.0 | 0.0 | 0.00 | 1.88 | 1.70 | 73 | 1014.1 |
| 20260507025503 | 7 | 171 | 0.0 | 0.0 | 0.00 | 1.88 | 1.70 | 71 | 1014.1 |
| 20260507025002 | 8 | 171 | 0.0 | 0.0 | 0.00 | 1.91 | 1.70 | 72 | 1014.0 |
| 20260507024503 | 8 | 171 | 0.0 | 0.0 | 0.00 | 1.91 | 1.70 | 70 | 1014.1 |
| 20260507024006 | 8 | 171 | 0.0 | 0.0 | 0.00 | 1.98 | 1.70 | 71 | 1014.1 |
| 20260507023503 | 8 | 171 | 0.0 | 0.0 | 0.00 | 1.98 | 1.70 | 70 | 1014.0 |
| 20260507023006 | 8 | 171 | 0.0 | 0.0 | 0.00 | 2.01 | 1.70 | 69 | 1014.0 |
| 20260507022503 | 8 | 171 | 0.0 | 1.6 | 0.00 | 2.03 | 1.70 | 70 | 1014.1 |
| 20260507022003 | 8 | 171 | 0.0 | 3.2 | 0.00 | 2.08 | 1.70 | 69 | 1014.1 |
| 20260507021504 | 8 | 171 | 0.0 | 3.2 | 0.00 | 2.16 | 1.70 | 69 | 1014.1 |
| 20260507021002 | 8 | 171 | 0.0 | 6.4 | 0.00 | 2.26 | 1.70 | 68 | 1014.0 |
| 20260507020502 | 8 | 171 | 0.0 | 6.4 | 0.00 | 2.34 | 1.70 | 70 | 1014.0 |
| 20260507020006 | 8 | 171 | 0.0 | 6.4 | 0.00 | 2.36 | 1.70 | 70 | 1013.9 |
| 20260507015506 | 8 | 197 | 0.0 | 6.4 | 0.00 | 2.39 | 1.70 | 70 | 1013.8 |
| 20260507015005 | 8 | 165 | 3.2 | 6.4 | 0.00 | 2.39 | 1.70 | 69 | 1013.7 |
| 20260507014507 | 8 | 177 | 1.6 | 8.0 | 0.00 | 2.41 | 1.70 | 68 | 1013.7 |
| 20260507014003 | 8 | 167 | 1.6 | 8.0 | 0.00 | 2.41 | 1.70 | 69 | 1013.6 |
| 20260507013502 | 8 | 194 | 1.6 | 9.7 | 0.00 | 2.44 | 1.70 | 70 | 1013.5 |
| 20260507013003 | 8 | 213 | 1.6 | 9.7 | 0.00 | 2.44 | 1.70 | 69 | 1013.5 |
| 20260507012503 | 8 | 186 | 1.6 | 6.4 | 0.00 | 2.44 | 1.70 | 71 | 1013.4 |
| 20260507012003 | 8 | 196 | 1.6 | 8.0 | 0.00 | 2.46 | 1.70 | 69 | 1013.3 |
| 20260507011505 | 8 | 192 | 3.2 | 8.0 | 0.00 | 2.46 | 1.70 | 68 | 1013.2 |
| 20260507011002 | 8 | 190 | 1.6 | 9.7 | 0.00 | 2.46 | 1.70 | 69 | 1013.2 |
| 20260507010503 | 8 | 198 | 1.6 | 9.7 | 0.00 | 2.46 | 1.70 | 69 | 1013.1 |
| 20260507010013 | 8 | 196 | 1.6 | 11.3 | 0.00 | 2.46 | 1.70 | 69 | 1013.2 |
| 20260507005503 | 8 | 173 | 1.6 | 11.3 | 0.00 | 2.49 | 1.70 | 66 | 1013.2 |
| 20260507005003 | 9 | 186 | 4.8 | 11.3 | 0.00 | 2.49 | 1.70 | 66 | 1013.2 |
| 20260507004508 | 9 | 198 | 4.8 | 11.3 | 0.00 | 2.49 | 1.70 | 67 | 1013.2 |
| 20260507004007 | 9 | 193 | 3.2 | 11.3 | 0.00 | 2.49 | 1.70 | 67 | 1013.1 |
| 20260507003503 | 9 | 180 | 3.2 | 11.3 | 0.00 | 2.49 | 1.70 | 66 | 1013.1 |
| 20260507003006 | 9 | 196 | 4.8 | 11.3 | 0.00 | 2.51 | 1.70 | 66 | 1013.0 |
| 20260507002503 | 10 | 191 | 4.8 | 11.3 | 0.00 | 2.51 | 1.70 | 68 | 1012.9 |
| 20260507002010 | 10 | 196 | 3.2 | 9.7 | 0.00 | 2.51 | 1.70 | 67 | 1012.9 |
| 20260507001502 | 10 | 206 | 6.4 | 12.9 | 0.00 | 2.54 | 1.70 | 67 | 1012.9 |
| 20260507001003 | 10 | 161 | 4.8 | 12.9 | 0.00 | 2.54 | 1.70 | 66 | 1012.9 |
| 20260507000503 | 10 | 204 | 6.4 | 12.9 | 0.00 | 2.54 | 1.70 | 65 | 1012.9 |
| 20260507000007 | 10 | 159 | 0.0 | 1.6 | 0.00 | 2.54 | 1.70 | 64 | 1012.8 |
| 20260506235505 | 10 | 159 | 0.0 | 0.0 | 0.00 | 2.57 | 1.70 | 65 | 1012.8 |
| 20260506235003 | 10 | 159 | 0.0 | 0.0 | 0.00 | 2.59 | 1.70 | 65 | 1012.9 |
| 20260506234509 | 10 | 159 | 0.0 | 0.0 | 0.00 | 2.59 | 1.70 | 65 | 1012.9 |
| 20260506234001 | 10 | 159 | 0.0 | 0.0 | 0.00 | 2.64 | 1.70 | 65 | 1012.9 |
| 20260506233502 | 10 | 159 | 0.0 | 3.2 | 0.00 | 2.67 | 1.70 | 63 | 1013.0 |
| 20260506233012 | 10 | 159 | 0.0 | 3.2 | 0.00 | 2.72 | 1.70 | 64 | 1012.9 |
| 20260506232506 | 10 | 159 | 0.0 | 3.2 | 0.00 | 2.79 | 1.70 | 62 | 1012.8 |
| 20260506232002 | 10 | 159 | 0.0 | 6.4 | 0.00 | 2.92 | 1.70 | 63 | 1012.9 |
| 20260506231509 | 11 | 159 | 0.0 | 6.4 | 0.00 | 3.05 | 1.70 | 61 | 1012.8 |
| 20260506231007 | 11 | 159 | 0.0 | 6.4 | 0.00 | 3.07 | 1.70 | 63 | 1012.8 |
| 20260506230507 | 11 | 160 | 0.0 | 4.8 | 0.00 | 3.07 | 1.70 | 63 | 1012.8 |
| 20260506230007 | 11 | 157 | 0.0 | 4.8 | 0.00 | 3.07 | 1.70 | 61 | 1012.8 |
| 20260506225507 | 11 | 157 | 0.0 | 9.7 | 0.00 | 3.10 | 1.70 | 61 | 1012.8 |
| 20260506225002 | 11 | 174 | 3.2 | 9.7 | 0.00 | 3.10 | 1.70 | 59 | 1012.9 |
| 20260506224507 | 11 | 155 | 0.0 | 4.8 | 0.00 | 3.10 | 1.70 | 62 | 1012.8 |
| 20260506224004 | 11 | 168 | 0.0 | 9.7 | 0.00 | 3.10 | 1.70 | 62 | 1012.8 |
| 20260506223501 | 11 | 142 | 1.6 | 9.7 | 0.00 | 3.10 | 1.70 | 59 | 1012.6 |
| 20260506223010 | 11 | 167 | 0.0 | 9.7 | 0.00 | 3.10 | 1.70 | 59 | 1012.5 |
| 20260506222506 | 11 | 182 | 0.0 | 11.3 | 0.00 | 3.10 | 1.70 | 58 | 1012.4 |
| 20260506222008 | 11 | 173 | 3.2 | 11.3 | 0.00 | 3.10 | 1.70 | 56 | 1012.4 |
| 20260506221517 | 12 | 149 | 1.6 | 8.0 | 0.00 | 3.10 | 1.70 | 59 | 1012.3 |
| 20260506221006 | 12 | 170 | 1.6 | 12.9 | 0.00 | 3.10 | 1.70 | 56 | 1012.3 |
| 20260506220502 | 12 | 168 | 1.6 | 12.9 | 0.00 | 3.10 | 1.70 | 57 | 1012.3 |
| 20260506220030 | 12 | 155 | 3.2 | 11.3 | 0.00 | 3.10 | 1.70 | 57 | 1012.2 |
| 20260506215507 | 11 | 131 | 1.6 | 9.7 | 0.00 | 3.10 | 1.70 | 57 | 1012.2 |
| 20260506215002 | 12 | 128 | 0.0 | 8.0 | 0.00 | 3.10 | 1.70 | 59 | 1012.2 |
| 20260506214512 | 12 | 120 | 1.6 | 9.7 | 0.00 | 3.10 | 1.70 | 57 | 1012.2 |
| 20260506214006 | 12 | 158 | 3.2 | 11.3 | 0.00 | 3.10 | 1.70 | 55 | 1012.2 |
| 20260506213506 | 12 | 81 | 1.6 | 14.5 | 0.00 | 3.10 | 1.70 | 56 | 1012.0 |
| 20260506213006 | 12 | 113 | 3.2 | 14.5 | 0.00 | 3.10 | 1.70 | 59 | 1012.0 |
| 20260506212503 | 12 | 154 | 3.2 | 14.5 | 0.00 | 3.10 | 1.70 | 57 | 1011.9 |
| 20260506212003 | 12 | 126 | 4.8 | 14.5 | 0.00 | 3.10 | 1.70 | 58 | 1011.9 |
| 20260506211510 | 12 | 170 | 3.2 | 9.7 | 0.00 | 3.10 | 1.70 | 57 | 1011.9 |
| 20260506211003 | 12 | 178 | 0.0 | 9.7 | 0.00 | 3.10 | 1.70 | 58 | 1011.9 |
| 20260506210506 | 12 | 184 | 1.6 | 9.7 | 0.00 | 3.10 | 1.70 | 60 | 1011.8 |
| 20260506210016 | 11 | 153 | 1.6 | 12.9 | 0.00 | 3.10 | 1.70 | 57 | 1011.8 |
| 20260506205504 | 11 | 180 | 3.2 | 12.9 | 0.00 | 3.10 | 1.70 | 59 | 1011.8 |
| 20260506205008 | 11 | 163 | 3.2 | 12.9 | 0.00 | 3.10 | 1.70 | 56 | 1011.8 |
| 20260506204522 | 11 | 153 | 1.6 | 11.3 | 0.00 | 3.10 | 1.70 | 59 | 1011.8 |
| 20260506204005 | 11 | 163 | 3.2 | 12.9 | 0.00 | 3.10 | 1.70 | 57 | 1011.8 |
| 20260506203502 | 11 | 169 | 1.6 | 12.9 | 0.00 | 3.10 | 1.70 | 56 | 1011.8 |
| 20260506203021 | 11 | 179 | 3.2 | 16.1 | 0.00 | 3.10 | 1.70 | 57 | 1011.8 |
| 20260506202506 | 12 | 194 | 3.2 | 16.1 | 0.00 | 3.10 | 1.70 | 57 | 1011.8 |
| 20260506202019 | 12 | 149 | 3.2 | 14.5 | 0.00 | 3.10 | 1.70 | 56 | 1011.8 |
| 20260506201515 | 12 | 182 | 0.0 | 11.3 | 0.00 | 3.12 | 1.70 | 58 | 1011.9 |
| 20260506201004 | 12 | 138 | 1.6 | 16.1 | 0.00 | 3.12 | 1.70 | 57 | 1011.9 |
| 20260506200503 | 12 | 167 | 4.8 | 16.1 | 0.00 | 3.15 | 1.70 | 54 | 1012.0 |
| 20260506200019 | 12 | 140 | 4.8 | 14.5 | 0.00 | 3.15 | 1.70 | 53 | 1011.9 |
| 20260506195506 | 12 | 147 | 3.2 | 17.7 | 0.00 | 3.15 | 1.70 | 56 | 1011.8 |
| 20260506195006 | 12 | 172 | 6.4 | 17.7 | 0.00 | 3.15 | 1.70 | 52 | 1011.6 |
| 20260506194519 | 12 | 174 | 8.0 | 17.7 | 0.00 | 3.15 | 1.70 | 53 | 1011.4 |
| 20260506194005 | 12 | 214 | 3.2 | 12.9 | 0.00 | 3.15 | 1.70 | 56 | 1011.6 |
| 20260506193509 | 12 | 187 | 6.4 | 12.9 | 0.00 | 3.15 | 1.70 | 53 | 1011.7 |
| 20260506193024 | 13 | 173 | 6.4 | 14.5 | 0.00 | 3.15 | 1.70 | 54 | 1011.8 |
| 20260506192507 | 13 | 164 | 6.4 | 16.1 | 0.00 | 3.15 | 1.70 | 56 | 1011.8 |
| 20260506192007 | 13 | 142 | 4.8 | 17.7 | 0.00 | 3.15 | 1.70 | 55 | 1012.0 |
| 20260506191522 | 13 | 163 | 4.8 | 17.7 | 0.00 | 3.15 | 1.70 | 53 | 1011.9 |
| 20260506191010 | 13 | 115 | 4.8 | 16.1 | 0.00 | 3.15 | 1.70 | 55 | 1011.8 |
| 20260506190504 | 13 | 134 | 3.2 | 16.1 | 0.00 | 3.15 | 1.70 | 57 | 1011.8 |
| 20260506190025 | 13 | 152 | 3.2 | 14.5 | 0.00 | 3.15 | 1.70 | 58 | 1011.7 |
| 20260506185504 | 13 | 187 | 3.2 | 14.5 | 0.00 | 3.15 | 1.70 | 57 | 1011.7 |
| 20260506185003 | 13 | 89 | 3.2 | 14.5 | 0.00 | 3.15 | 1.70 | 57 | 1011.7 |
| 20260506184518 | 13 | 122 | 4.8 | 17.7 | 0.00 | 3.15 | 1.70 | 57 | 1011.7 |
| 20260506184004 | 13 | 172 | 1.6 | 17.7 | 0.00 | 3.15 | 1.70 | 58 | 1011.8 |
| 20260506183502 | 13 | 215 | 8.0 | 17.7 | 0.00 | 3.15 | 1.70 | 55 | 1011.7 |
| 20260506183005 | 13 | 159 | 4.8 | 17.7 | 0.00 | 3.15 | 1.70 | 61 | 1011.8 |
| 20260506182501 | 13 | 109 | 4.8 | 17.7 | 0.00 | 3.15 | 1.70 | 60 | 1011.9 |
| 20260506182003 | 13 | 114 | 4.8 | 12.9 | 0.00 | 3.15 | 1.70 | 61 | 1011.7 |
| 20260506181507 | 13 | 161 | 3.2 | 12.9 | 0.00 | 3.15 | 1.70 | 63 | 1011.5 |
| 20260506181002 | 12 | 130 | 3.2 | 12.9 | 0.00 | 3.15 | 1.70 | 62 | 1011.6 |
| 20260506180503 | 13 | 167 | 3.2 | 14.5 | 0.00 | 3.15 | 1.70 | 61 | 1011.6 |
| 20260506180009 | 13 | 146 | 4.8 | 14.5 | 0.00 | 3.15 | 1.70 | 64 | 1011.4 |
| 20260506175508 | 13 | 137 | 4.8 | 14.5 | 0.00 | 3.15 | 1.70 | 60 | 1011.4 |
| 20260506175008 | 13 | 180 | 3.2 | 9.7 | 0.00 | 3.15 | 1.70 | 63 | 1011.5 |
| 20260506174504 | 12 | 159 | 1.6 | 17.7 | 0.00 | 3.15 | 1.70 | 70 | 1011.5 |
| 20260506174006 | 12 | 159 | 4.8 | 17.7 | 0.00 | 3.15 | 1.70 | 70 | 1011.6 |
| 20260506173503 | 12 | 165 | 3.2 | 12.9 | 0.00 | 3.15 | 1.70 | 68 | 1011.5 |
| 20260506173004 | 13 | 156 | 3.2 | 16.1 | 0.00 | 3.15 | 1.70 | 68 | 1011.6 |
| 20260506172501 | 13 | 184 | 6.4 | 16.1 | 0.00 | 3.15 | 1.70 | 68 | 1011.6 |
| 20260506172002 | 13 | 155 | 1.6 | 9.7 | 0.00 | 3.15 | 1.70 | 72 | 1011.7 |
| 20260506171503 | 12 | 155 | 1.6 | 9.7 | 0.00 | 3.15 | 1.70 | 73 | 1011.6 |
| 20260506171003 | 12 | 161 | 3.2 | 17.7 | 0.00 | 3.15 | 1.70 | 67 | 1011.5 |
| 20260506170505 | 12 | 132 | 3.2 | 17.7 | 0.00 | 3.15 | 1.70 | 67 | 1011.5 |
| 20260506170009 | 13 | 114 | 3.2 | 12.9 | 0.00 | 3.15 | 1.70 | 65 | 1011.4 |
| 20260506165506 | 13 | 144 | 4.8 | 12.9 | 0.00 | 3.15 | 1.70 | 68 | 1011.3 |
| 20260506165003 | 12 | 142 | 3.2 | 11.3 | 0.00 | 3.15 | 1.70 | 71 | 1011.5 |
| 20260506164510 | 13 | 205 | 4.8 | 14.5 | 0.00 | 3.15 | 1.70 | 70 | 1011.4 |
| 20260506164002 | 12 | 107 | 1.6 | 14.5 | 0.00 | 3.15 | 1.70 | 74 | 1011.6 |
| 20260506163503 | 12 | 170 | 1.6 | 17.7 | 0.00 | 3.15 | 1.70 | 72 | 1011.6 |
| 20260506163009 | 12 | 138 | 6.4 | 17.7 | 0.00 | 3.15 | 1.70 | 72 | 1011.4 |
| 20260506162504 | 12 | 167 | 6.4 | 16.1 | 0.00 | 3.15 | 1.70 | 72 | 1011.3 |
| 20260506162006 | 12 | 142 | 4.8 | 14.5 | 0.00 | 3.15 | 1.70 | 74 | 1011.2 |
| 20260506161504 | 12 | 155 | 4.8 | 14.5 | 0.00 | 3.15 | 1.70 | 76 | 1011.2 |
| 20260506161004 | 12 | 169 | 3.2 | 14.5 | 0.00 | 3.15 | 1.70 | 75 | 1011.1 |
| 20260506160508 | 12 | 124 | 1.6 | 12.9 | 0.00 | 3.15 | 1.70 | 79 | 1011.0 |
| 20260506160006 | 11 | 151 | 1.6 | 12.9 | 0.00 | 3.15 | 1.70 | 80 | 1011.0 |
| 20260506155502 | 11 | 163 | 0.0 | 17.7 | 0.00 | 3.15 | 1.70 | 79 | 1011.2 |
| 20260506155003 | 11 | 174 | 6.4 | 17.7 | 0.00 | 3.15 | 1.70 | 75 | 1011.2 |
| 20260506154508 | 11 | 129 | 6.4 | 14.5 | 0.00 | 3.15 | 1.70 | 78 | 1011.2 |
| 20260506154004 | 11 | 190 | 3.2 | 14.5 | 0.00 | 3.15 | 1.70 | 78 | 1011.1 |
| 20260506153503 | 11 | 183 | 1.6 | 14.5 | 0.00 | 3.15 | 1.70 | 79 | 1010.9 |
| 20260506153012 | 10 | 194 | 6.4 | 14.5 | 0.00 | 3.15 | 1.70 | 82 | 1010.9 |
| 20260506152506 | 10 | 216 | 4.8 | 16.1 | 0.00 | 3.15 | 1.70 | 83 | 1010.7 |
| 20260506152004 | 10 | 204 | 4.8 | 16.1 | 0.00 | 3.15 | 1.70 | 84 | 1010.7 |
| 20260506151514 | 10 | 140 | 3.2 | 11.3 | 0.00 | 3.15 | 1.70 | 84 | 1010.8 |
| 20260506151005 | 9 | 179 | 1.6 | 12.9 | 0.00 | 3.15 | 1.70 | 86 | 1010.8 |
| 20260506150504 | 9 | 122 | 3.2 | 16.1 | 0.00 | 3.15 | 1.70 | 87 | 1010.8 |
| 20260506150013 | 9 | 172 | 4.8 | 16.1 | 0.00 | 3.15 | 1.70 | 87 | 1010.8 |
| 20260506145504 | 9 | 159 | 3.2 | 11.3 | 0.00 | 3.15 | 1.70 | 89 | 1010.7 |
| 20260506145006 | 8 | 167 | 1.6 | 11.3 | 0.00 | 3.15 | 1.70 | 90 | 1010.7 |
| 20260506144512 | 8 | 189 | 6.4 | 20.9 | 0.00 | 3.15 | 1.70 | 90 | 1010.6 |
| 20260506144002 | 8 | 174 | 8.0 | 20.9 | 0.00 | 3.15 | 1.70 | 90 | 1010.6 |
| 20260506143502 | 8 | 147 | 3.2 | 17.7 | 0.00 | 3.15 | 1.70 | 92 | 1010.4 |
| 20260506143011 | 8 | 118 | 1.6 | 17.7 | 0.00 | 3.15 | 1.70 | 92 | 1010.2 |
| 20260506142503 | 8 | 161 | 3.2 | 11.3 | 0.00 | 3.15 | 1.70 | 94 | 1010.3 |
| 20260506142005 | 8 | 157 | 4.8 | 11.3 | 0.00 | 3.15 | 1.70 | 94 | 1010.2 |
| 20260506141515 | 8 | 142 | 3.2 | 9.7 | 0.00 | 3.15 | 1.70 | 95 | 1010.2 |
| 20260506141011 | 8 | 164 | 3.2 | 12.9 | 0.00 | 3.15 | 1.70 | 95 | 1010.2 |
| 20260506140505 | 7 | 207 | 6.4 | 12.9 | 0.00 | 3.15 | 1.70 | 95 | 1010.0 |
| 20260506140016 | 7 | 121 | 3.2 | 12.9 | 0.00 | 3.15 | 1.70 | 95 | 1010.1 |
| 20260506135506 | 7 | 175 | 1.6 | 11.3 | 0.00 | 3.15 | 1.70 | 95 | 1010.2 |
| 20260506135005 | 7 | 153 | 3.2 | 11.3 | 0.00 | 3.15 | 1.70 | 96 | 1010.3 |
| 20260506134516 | 7 | 177 | 3.2 | 11.3 | 0.00 | 3.15 | 1.70 | 96 | 1010.2 |
| 20260506134005 | 7 | 144 | 1.6 | 9.7 | 0.00 | 3.15 | 1.70 | 96 | 1010.1 |
| 20260506133507 | 7 | 103 | 1.6 | 11.3 | 0.00 | 3.15 | 1.70 | 96 | 1009.9 |
| 20260506133011 | 7 | 145 | 1.6 | 11.3 | 0.00 | 3.15 | 1.70 | 96 | 1009.8 |
| 20260506132504 | 7 | 205 | 3.2 | 9.7 | 0.00 | 3.15 | 1.70 | 96 | 1009.6 |
| 20260506132006 | 7 | 171 | 3.2 | 9.7 | 0.00 | 3.15 | 1.70 | 97 | 1009.6 |
| 20260506131511 | 7 | 192 | 3.2 | 9.7 | 0.00 | 3.15 | 1.70 | 96 | 1009.4 |
| 20260506131004 | 7 | 194 | 3.2 | 9.7 | 0.00 | 3.15 | 1.70 | 97 | 1009.5 |
| 20260506130506 | 7 | 192 | 1.6 | 6.4 | 0.00 | 3.15 | 1.70 | 97 | 1009.4 |
| 20260506130018 | 7 | 113 | 0.0 | 6.4 | 0.00 | 3.15 | 1.70 | 97 | 1009.5 |
| 20260506125504 | 7 | 184 | 1.6 | 11.3 | 0.00 | 3.15 | 1.70 | 96 | 1009.4 |
| 20260506125006 | 7 | 155 | 0.0 | 11.3 | 0.00 | 3.15 | 1.70 | 96 | 1009.4 |
| 20260506124523 | 7 | 169 | 1.6 | 9.7 | 0.00 | 3.15 | 1.70 | 96 | 1009.3 |
| 20260506124006 | 7 | 207 | 1.6 | 8.0 | 0.00 | 3.15 | 1.70 | 96 | 1009.3 |
| 20260506123505 | 7 | 171 | 1.6 | 11.3 | 0.00 | 3.15 | 1.70 | 96 | 1009.4 |
| 20260506123019 | 7 | 190 | 1.6 | 11.3 | 0.00 | 3.15 | 1.70 | 97 | 1009.3 |
| 20260506122506 | 7 | 196 | 1.6 | 9.7 | 0.00 | 3.15 | 1.70 | 97 | 1009.1 |
| 20260506122008 | 7 | 161 | 1.6 | 11.3 | 0.00 | 3.15 | 1.70 | 97 | 1008.9 |
| 20260506121520 | 7 | 194 | 3.2 | 11.3 | 0.00 | 3.15 | 1.70 | 97 | 1008.6 |
| 20260506121007 | 7 | 199 | 4.8 | 9.7 | 0.00 | 3.15 | 1.70 | 97 | 1008.5 |
| 20260506120503 | 7 | 178 | 1.6 | 9.7 | 0.00 | 3.15 | 1.70 | 97 | 1008.7 |
| 20260506120022 | 7 | 165 | 3.2 | 9.7 | 0.00 | 3.15 | 1.70 | 97 | 1008.7 |
| 20260506115509 | 7 | 186 | 0.0 | 9.7 | 0.00 | 3.15 | 1.70 | 97 | 1008.7 |
| 20260506115008 | 7 | 189 | 0.0 | 9.7 | 0.00 | 3.15 | 1.70 | 97 | 1008.9 |
| 20260506114519 | 7 | 142 | 0.0 | 8.0 | 0.00 | 3.15 | 1.70 | 97 | 1008.9 |
| 20260506114004 | 7 | 187 | 0.0 | 6.4 | 0.00 | 3.15 | 1.70 | 97 | 1008.7 |
| 20260506113506 | 7 | 190 | 0.0 | 9.7 | 0.00 | 3.15 | 1.70 | 96 | 1008.5 |
| 20260506113023 | 7 | 129 | 0.0 | 9.7 | 0.00 | 3.15 | 1.70 | 97 | 1008.6 |
| 20260506112510 | 7 | 207 | 1.6 | 6.4 | 0.00 | 3.15 | 1.70 | 96 | 1008.4 |
| 20260506112007 | 7 | 226 | 0.0 | 8.0 | 0.00 | 3.15 | 1.70 | 96 | 1008.2 |
| 20260506111523 | 7 | 198 | 0.0 | 8.0 | 0.00 | 3.15 | 1.70 | 96 | 1008.5 |
| 20260506111009 | 7 | 198 | 1.6 | 6.4 | 0.00 | 3.15 | 1.70 | 96 | 1008.8 |
| 20260506110504 | 7 | 177 | 0.0 | 8.0 | 0.00 | 3.15 | 1.70 | 96 | 1008.9 |
| 20260506110023 | 7 | 171 | 1.6 | 9.7 | 0.03 | 3.15 | 1.70 | 97 | 1008.3 |
| 20260506105512 | 7 | 162 | 3.2 | 12.9 | 0.03 | 3.15 | 1.70 | 97 | 1008.2 |
| 20260506105009 | 6 | 145 | 1.6 | 12.9 | 0.05 | 3.15 | 1.70 | 97 | 1008.3 |
| 20260506104515 | 6 | 167 | 0.0 | 8.0 | 0.05 | 3.15 | 1.70 | 96 | 1007.8 |
| 20260506104010 | 6 | 182 | 1.6 | 6.4 | 0.08 | 3.15 | 1.70 | 96 | 1007.5 |
| 20260506103508 | 6 | 192 | 1.6 | 8.0 | 0.10 | 3.15 | 1.70 | 96 | 1007.1 |
| 20260506103025 | 6 | 217 | 3.2 | 8.0 | 0.10 | 3.15 | 1.70 | 96 | 1006.9 |
| 20260506102507 | 6 | 221 | 1.6 | 11.3 | 0.13 | 3.15 | 1.70 | 96 | 1007.0 |
| 20260506102010 | 6 | 203 | 1.6 | 11.3 | 0.15 | 3.15 | 1.70 | 96 | 1007.2 |
| 20260506101524 | 6 | 222 | 3.2 | 11.3 | 0.18 | 3.15 | 1.70 | 96 | 1007.0 |
| 20260506101007 | 6 | 225 | 1.6 | 8.0 | 0.20 | 3.15 | 1.70 | 96 | 1006.9 |
| 20260506100508 | 6 | 240 | 1.6 | 9.7 | 0.23 | 3.15 | 1.70 | 96 | 1007.0 |
| 20260506100027 | 6 | 218 | 3.2 | 11.3 | 0.23 | 3.12 | 1.68 | 96 | 1007.2 |
| 20260506095510 | 6 | 224 | 4.8 | 11.3 | 0.25 | 3.12 | 1.68 | 96 | 1007.4 |
| 20260506095006 | 6 | 172 | 3.2 | 12.9 | 0.23 | 3.10 | 1.65 | 96 | 1007.7 |
| 20260506094528 | 6 | 203 | 3.2 | 12.9 | 0.25 | 3.10 | 1.65 | 96 | 1007.7 |
| 20260506094005 | 6 | 157 | 1.6 | 12.9 | 0.23 | 3.07 | 1.63 | 96 | 1007.9 |
| 20260506093505 | 6 | 206 | 3.2 | 11.3 | 0.20 | 3.05 | 1.60 | 96 | 1007.9 |
| 20260506093030 | 6 | 182 | 1.6 | 11.3 | 0.20 | 3.05 | 1.60 | 96 | 1007.9 |
| 20260506092503 | 6 | 173 | 3.2 | 12.9 | 0.20 | 3.02 | 1.57 | 96 | 1007.8 |
| 20260506092004 | 6 | 169 | 3.2 | 12.9 | 0.18 | 2.97 | 1.55 | 96 | 1007.8 |
| 20260506091526 | 6 | 196 | 3.2 | 8.0 | 0.18 | 2.95 | 1.52 | 96 | 1007.6 |
| 20260506091003 | 6 | 215 | 3.2 | 8.0 | 0.18 | 2.95 | 1.47 | 96 | 1007.8 |
| 20260506090502 | 6 | 173 | 0.0 | 9.7 | 0.18 | 2.92 | 1.47 | 96 | 1007.7 |
| 20260506090019 | 6 | 189 | 3.2 | 14.5 | 0.20 | 2.90 | 1.45 | 96 | 1007.7 |
| 20260506085503 | 6 | 171 | 3.2 | 14.5 | 0.23 | 2.87 | 1.42 | 96 | 1007.6 |
| 20260506085003 | 6 | 198 | 3.2 | 11.3 | 0.28 | 2.87 | 1.42 | 96 | 1007.5 |
| 20260506084530 | 6 | 193 | 4.8 | 16.1 | 0.30 | 2.84 | 1.40 | 96 | 1007.6 |
| 20260506084004 | 6 | 180 | 4.8 | 16.1 | 0.33 | 2.84 | 1.40 | 95 | 1007.5 |
| 20260506083504 | 6 | 170 | 9.7 | 16.1 | 0.36 | 2.84 | 1.40 | 95 | 1007.4 |
| 20260506083010 | 6 | 214 | 8.0 | 17.7 | 0.41 | 2.84 | 1.40 | 95 | 1007.2 |
| 20260506082504 | 6 | 203 | 9.7 | 20.9 | 0.41 | 2.82 | 1.37 | 95 | 1007.4 |
| 20260506082009 | 6 | 201 | 11.3 | 20.9 | 0.43 | 2.82 | 1.37 | 95 | 1007.4 |
| 20260506081505 | 6 | 149 | 4.8 | 14.5 | 0.43 | 2.79 | 1.32 | 95 | 1007.4 |
| 20260506081004 | 7 | 211 | 4.8 | 19.3 | 0.43 | 2.77 | 1.32 | 95 | 1007.4 |
| 20260506080506 | 7 | 176 | 4.8 | 19.3 | 0.43 | 2.74 | 1.30 | 95 | 1007.3 |